World > North America > United States > Arizona

Overgaard, Arizona Regional Weather

Lat: 34.39N, Lon: 110.55W
Wx Zone: AZZ016Web Search

Helpful Tip: Abbreviated, 7 Day, 14 Day Forecasts. There is a weather forecast for every taste.

Feedback
Overgaard Weather Map
UTC Time: 11/28/2020, 17:27
Your Time:

Overgaard, AZ Regional Weather

Expires:202011281800;;532707
ASUS45 KPSR 281710
RWRAZ 

ARIZONA HOURLY REGIONAL WEATHER ROUNDUP
NATIONAL WEATHER SERVICE PHOENIX AZ
1000 AM MST SAT NOV 28 2020

NOTE: FAIR INDICATES FEW OR NO CLOUDS BELOW 12,000 FEET WITH NO
SIGNIFICANT WEATHER AND/OR OBSTRUCTIONS TO VISIBILITY.


AZZ004>008-015-016-018-281800-
NORTH CENTRAL ARIZONA
  
CITY           SKY/WX    TMP DP  RH WIND       PRES   REMARKS
GRAND CANYON   SUNNY     39  10  30 CALM      30.31S                  
WILLIAMS       SUNNY     41  18  38 CALM      30.30                   
PRESCOTT       SUNNY     39  13  34 NW3       30.30R                  
FLAGSTAFF      SUNNY     39  18  42 NE8       30.30S WCI  33          
PAYSON         SUNNY     46  23  39 VRB3      30.29                   
PAGE           SUNNY     38  12  34 CALM      30.34R                  
$$


SKY/WX - Weather  TMP - Temperature  DP - Dew Point  RH - Relative Humidity
WIND - Wind Direction/Speed PRES - Barometric Pressure VSB - Visibility
WCI - Wind Chill Index E13G22 Wind - East Wind 13 mph/Gusts of 22 mph